Starlink 31700

operational
NORAD ID: 59436 Int'l Des: 2024-065 Owner: SPXS Country: US Constellation: starlink
LEOCIRCULAR

Über Starlink 31700

Beschreibung wird geladen...

Live-Position

3D-Globus wird geladen...

Nächste Überflüge

Höhenverlauf

Altitude vs Time

uPlot chart will show altitude changes over time

Zweizeiliger Elementsatz

1 59436U 24065R 25258.59190308 .00001513 00000-0 63210-4 0 9997
2 59436 53.1627 14.8076 0001198 84.3750 275.7387 15.30194304 82127
Epoch: 15. Sept. 2025 • Age: 18 hours

Aktueller Status

Höhe 492.0 km
Geschwindigkeit 7.62 km/s
Subsatellitenpunkt -46.83°S, 120.54°E
Startdatum 7. Apr. 2024
Alter 1.4 years
Typ internet

Technische Details

Klassifizierung Payload
Masse 730.00 kg
Trockenmasse 700.00 kg
Gesamtmasse 730.00 kg
Länge 0.30 m
Durchmesser 4.10 m
Spannweite 29.00 m
Form Box + pan
Hersteller SPXS
Bus-Typ Starlink V2M
Phasenstatus In Orbit
Besitzer/Staat SPXS/US

Große Konstellationen

Loading constellations...